User: anonymous   Login
Location: Unspecified
(0.0000°N, 0.0000°E)
Time: 18:55:15
(UTC+00:00)
Language:

SWAYAM - Orbit

View from above orbital plane
View from above orbital plane
View from above satellite
View from above satellite

Ground track
Ground track

The orbit data is extracted from the following two-line orbital elements,

1 41607U 16040J   19340.89722409 +.00001139 +00000-0 +50224-4 0  9998
2 41607 097.3456 039.5916 0014327 143.6970 216.5242 15.23714015191949
Epoch (UTC): 06 December 2019 21:32:00
Eccentricity: 0.0014327
inclination: 97.3456°
perigee height: 485 km
apogee height: 504 km
right ascension of ascending node: 39.5916°
argument of perigee: 143.6970°
revolutions per day: 15.23714015
mean anomaly at epoch: 216.5242°
orbit number at epoch: 19194

The dashed part of the orbit path shows where the satellite is in the earth's shadow,  

DLR